FLOCK 2K-46 (42858 NORAD) Tracking and Keplerian Element Data

This shows tracking and keplerian element data for the satellite.

Feedback or suggestion? Click here.




ElementValue
Catalog42858
NameFLOCK 2K-46
Epoch Orbit15574
Epoch Day114.88074789
Epoch Year2020
RAAN346.3652
Inclination96.8997
Eccentricity0.0009164
Argument of Perigee156.9609
Mean Anonmoly203.2053
Mean Motion15.42653981
Decay Rate5.705E-05
L11 42858U 17042AK 20114.88074789 .00005705 00000-0 13261-3 0 9993
L22 42858 96.8997 346.3652 0009164 156.9609 203.2053 15.42653981155743

Live tracking and technical data element details for FLOCK 2K-46 (NORAD 42858). FLOCK 2K-46 can be tracked NOW for your location showing map with azimuth and elevation plus other details from your city location.

Track the satellite on the map from your city or location and see movement details for azimuth, elevation, latitude, longitude, range, height, and movement on the map or in text.







IsCatalogInMostPopularTable: catalog: 42858, numindb: 449
Update: records affected: 1



GetName: 42858 FLOCK 2K-46

Hit Count: updated at: Wed, 30 Sep 2020 08:46:16 GMT